Regional Weather Roundup
Issued by NWS Sioux Falls, SD

Home | Current Version | Previous Version | Text Only | Print | Product List | Glossary On
Versions: 1 2 3 4 5 6 7 8 9 10 11 12 13 14 15 16 17 18 19 20 21 22 23 24 25 26 27 28 29 30 31 32 33 34 35 36 37 38 39 40 41 42 43 44 45 46 47 48 49 50
000
ASUS43 KFSD 180002
RWRFSD

WEATHER ROUNDUP FOR SE SOUTH DAKOTA/SW MINNESOTA/NW IOWA
NATIONAL WEATHER SERVICE SIOUX FALLS SD
600 PM CST TUE JAN 17 2017

NOTE: "FAIR" INDICATES FEW OR NO CLOUDS BELOW 12,000 FEET WITH NO
SIGNIFICANT WEATHER AND OR OBSTRUCTIONS TO VISIBILITY.


SDZ038>040-050-052>070-180100-
SOUTHEAST SOUTH DAKOTA

CITY           SKY/WX    TMP DP  RH WIND       PRES   REMARKS
BROOKINGS      CLOUDY    24  20  84 S9        29.95F WCI  14
CHAMBERLAIN    CLOUDY    35  28  75 SE7       29.92S WCI  29
6HR MIN TEMP:  28; 6HR MAX TEMP:  42;

HURON          CLOUDY    28  23  81 S6        29.94F WCI  22
6HR MIN TEMP:  20; 6HR MAX TEMP:  30;

MADISON          N/A     23  23 100 S9          N/A  WCI  13
MITCHELL       CLOUDY    31  25  78 S9        29.97S WCI  23
6HR MIN TEMP:  26; 6HR MAX TEMP:  38;

SIOUX FALLS    PTCLDY    29  23  78 S6        30.00S WCI  23
6HR MIN TEMP:  24; 6HR MAX TEMP:  33;

WINNER         FAIR      43  20  39 SW7       29.91S
YANKTON        CLEAR     32  28  86 SE6       30.02S WCI  26
$$

MNZ071-072-080-081-089-090-097-098-180100-
SOUTHWEST MINNESOTA

CITY           SKY/WX    TMP DP  RH WIND       PRES   REMARKS
FAIRMONT       PTCLDY    29  28  96 SW6       30.03R WCI  23
JACKSON        CLEAR     28  27  93 SW5       30.01R WCI  23
LUVERNE        CLEAR     27  23  86 S6        30.02S WCI  20
MARSHALL       CLOUDY    25  21  85 SW7       29.98S WCI  17
6HR MIN TEMP:  24; 6HR MAX TEMP:  31;

MONTEVIDEO     PTCLDY    19  16  86 SW6       29.98F WCI  11
PIPESTONE      CLOUDY    27  23  86 SW5       29.98F WCI  21
REDWOOD FALLS  CLOUDY    24  18  77 S5        29.99S WCI  18
TRACY          CLOUDY    29  26  86 SW15      29.98S WCI  18
WINDOM           N/A     28  27  93 SW7       30.00S WCI  21
WORTHINGTON    CLEAR     27  25  92 SW10      30.00  WCI  17
$$

IAZ001>003-012>014-020>022-031-032-NEZ013-014-SDZ071-180100-
NORTHWEST IOWA

CITY           SKY/WX    TMP DP  RH WIND       PRES   REMARKS
CHEROKEE       CLEAR     28  28 100 S3        30.05S FOG
DENISON        CLOUDY    28  28 100 SW9       30.06R WCI  20
ESTHERVILLE    CLEAR     29  27  92 SW8       30.02R WCI  21
LE MARS        CLEAR     30  28  93 S5        30.05F WCI  25
ORANGE CITY    CLEAR     28  28 100 SW5       30.04R WCI  23
SHELDON        CLEAR     28  28 100 SW5       30.01S WCI  23
SIOUX CITY     CLEAR     32  28  85 S5        30.06S WCI  27
6HR MIN TEMP:  28; 6HR MAX TEMP:  36;

SPENCER        CLEAR     28  26  92 SW6       30.03S WCI  22
6HR MIN TEMP:  28; 6HR MAX TEMP:  32;

STORM LAKE     CLOUDY    28  28 100 SW9       30.04S FOG     WCI  20
$$

ABBREVIATIONS USED IN REMARKS
   TC - TEMPERATURE IN CELSIUS
  WCI - WIND CHILL INDEX
   HX - HEAT INDEX
  VSB - VISIBILITY





USA.gov is the U.S. government's official web portal to all federal, state and local government web resources and services.